| time (UTC) | temp F | wind direction | speed MPH | gust MPH | rain 1hr in | rain 24hr in | rain mn in | humidity % | barometer mb |
| 20260902202012 | 65 | 150 | 2.0 | 7.0 | 0.00 | 0.03 | 0.01 | 84 | 1024.6 |
| 20260902201520 | 65 | 189 | 3.0 | 7.0 | 0.00 | 0.03 | 0.01 | 83 | 1024.6 |
| 20260902201019 | 65 | 121 | 4.0 | 8.0 | 0.00 | 0.03 | 0.01 | 84 | 1024.6 |
| 20260902200523 | 65 | 134 | 3.0 | 8.0 | 0.00 | 0.03 | 0.01 | 85 | 1024.5 |
| 20260902200019 | 65 | 118 | 5.0 | 9.0 | 0.00 | 0.03 | 0.01 | 84 | 1024.6 |
| 20260902195519 | 65 | 148 | 5.0 | 9.0 | 0.00 | 0.03 | 0.01 | 84 | 1024.6 |
| 20260902195012 | 65 | 117 | 5.0 | 8.0 | 0.00 | 0.03 | 0.01 | 84 | 1024.6 |
| 20260902194521 | 65 | 124 | 5.0 | 8.0 | 0.00 | 0.03 | 0.01 | 84 | 1024.6 |
| 20260902194019 | 66 | 152 | 4.0 | 8.0 | 0.00 | 0.03 | 0.01 | 84 | 1024.6 |
| 20260902193512 | 65 | 120 | 5.0 | 8.0 | 0.00 | 0.03 | 0.01 | 83 | 1024.6 |
| 20260902193019 | 65 | 118 | 5.0 | 9.0 | 0.00 | 0.03 | 0.01 | 83 | 1024.7 |
| 20260902192518 | 66 | 122 | 5.0 | 9.0 | 0.00 | 0.03 | 0.01 | 83 | 1024.6 |
| 20260902192013 | 66 | 115 | 4.0 | 7.0 | 0.00 | 0.03 | 0.01 | 82 | 1024.7 |
| 20260902191531 | 66 | 112 | 3.0 | 8.0 | 0.00 | 0.03 | 0.01 | 79 | 1024.7 |
| 20260902191018 | 66 | 117 | 4.0 | 8.0 | 0.00 | 0.03 | 0.01 | 77 | 1024.5 |
| 20260902190523 | 67 | 111 | 3.0 | 6.0 | 0.00 | 0.03 | 0.01 | 75 | 1024.4 |
| 20260902190025 | 67 | 120 | 2.0 | 5.0 | 0.00 | 0.03 | 0.01 | 77 | 1024.3 |
| 20260902185519 | 67 | 120 | 2.0 | 5.0 | 0.00 | 0.03 | 0.01 | 77 | 1024.3 |
| 20260902185012 | 67 | 122 | 2.0 | 5.0 | 0.00 | 0.03 | 0.01 | 76 | 1024.3 |
| 20260902184524 | 68 | 141 | 2.0 | 6.0 | 0.00 | 0.03 | 0.01 | 75 | 1024.3 |
| 20260902184030 | 68 | 96 | 2.0 | 6.0 | 0.00 | 0.03 | 0.01 | 73 | 1024.3 |
| 20260902183512 | 68 | 72 | 3.0 | 6.0 | 0.00 | 0.03 | 0.01 | 72 | 1024.3 |
| 20260902183021 | 68 | 75 | 2.0 | 7.0 | 0.00 | 0.03 | 0.01 | 75 | 1024.4 |
| 20260902182519 | 68 | 127 | 3.0 | 7.0 | 0.00 | 0.03 | 0.01 | 76 | 1024.4 |
| 20260902182012 | 68 | 160 | 4.0 | 7.0 | 0.00 | 0.03 | 0.01 | 77 | 1024.4 |
| 20260902181520 | 68 | 110 | 3.0 | 7.0 | 0.00 | 0.03 | 0.01 | 77 | 1024.4 |
| 20260902181031 | 68 | 98 | 4.0 | 8.0 | 0.00 | 0.03 | 0.01 | 76 | 1024.4 |
| 20260902180512 | 68 | 108 | 4.0 | 8.0 | 0.00 | 0.03 | 0.01 | 76 | 1024.4 |
| 20260902180020 | 68 | 110 | 4.0 | 9.0 | 0.00 | 0.03 | 0.01 | 76 | 1024.5 |
| 20260902175518 | 68 | 160 | 3.0 | 10.0 | 0.00 | 0.03 | 0.01 | 76 | 1024.3 |
| 20260902175023 | 68 | 101 | 5.0 | 10.0 | 0.00 | 0.03 | 0.01 | 75 | 1024.3 |
| 20260902174524 | 68 | 120 | 5.0 | 10.0 | 0.00 | 0.03 | 0.01 | 74 | 1024.3 |
| 20260902174019 | 68 | 123 | 3.0 | 10.0 | 0.00 | 0.03 | 0.01 | 77 | 1024.4 |
| 20260902173512 | 68 | 149 | 5.0 | 12.0 | 0.00 | 0.03 | 0.01 | 75 | 1024.4 |
| 20260902173020 | 67 | 113 | 5.0 | 12.0 | 0.00 | 0.03 | 0.01 | 75 | 1024.3 |
| 20260902172519 | 67 | 99 | 7.0 | 12.0 | 0.00 | 0.03 | 0.01 | 75 | 1024.5 |
| 20260902172012 | 67 | 108 | 7.0 | 12.0 | 0.00 | 0.03 | 0.01 | 75 | 1024.5 |
| 20260902171520 | 67 | 136 | 7.0 | 10.0 | 0.00 | 0.03 | 0.01 | 76 | 1024.4 |
| 20260902171018 | 67 | 105 | 6.0 | 11.0 | 0.00 | 0.03 | 0.01 | 77 | 1024.4 |
| 20260902170513 | 67 | 115 | 7.0 | 11.0 | 0.00 | 0.03 | 0.01 | 76 | 1024.3 |
| 20260902170020 | 67 | 110 | 6.0 | 11.0 | 0.00 | 0.03 | 0.01 | 78 | 1024.3 |
| 20260902165520 | 67 | 232 | 6.0 | 11.0 | 0.00 | 0.03 | 0.01 | 76 | 1024.3 |
| 20260902165013 | 68 | 132 | 3.0 | 8.0 | 0.00 | 0.03 | 0.01 | 78 | 1024.4 |
| 20260902164520 | 67 | 131 | 6.0 | 8.0 | 0.00 | 0.03 | 0.01 | 78 | 1024.3 |
| 20260902164019 | 67 | 131 | 4.0 | 10.0 | 0.00 | 0.03 | 0.01 | 80 | 1024.4 |
| 20260902163512 | 67 | 112 | 5.0 | 12.0 | 0.00 | 0.03 | 0.01 | 80 | 1024.4 |
| 20260902163020 | 68 | 75 | 7.0 | 14.0 | 0.00 | 0.03 | 0.01 | 80 | 1024.4 |
| 20260902162519 | 69 | 190 | 8.0 | 14.0 | 0.00 | 0.03 | 0.01 | 78 | 1024.5 |
| 20260902162012 | 69 | 134 | 3.0 | 8.0 | 0.00 | 0.03 | 0.01 | 78 | 1024.4 |
| 20260902161525 | 68 | 154 | 3.0 | 8.0 | 0.00 | 0.03 | 0.01 | 78 | 1024.4 |
| 20260902161020 | 69 | 136 | 3.0 | 10.0 | 0.00 | 0.03 | 0.01 | 79 | 1024.3 |
| 20260902160513 | 68 | 141 | 5.0 | 10.0 | 0.00 | 0.03 | 0.01 | 78 | 1024.5 |
| 20260902160020 | 69 | 165 | 3.0 | 10.0 | 0.00 | 0.03 | 0.01 | 78 | 1024.5 |
| 20260902155530 | 68 | 96 | 3.0 | 10.0 | 0.00 | 0.03 | 0.01 | 78 | 1024.5 |
| 20260902155012 | 68 | 142 | 4.0 | 7.0 | 0.00 | 0.03 | 0.01 | 79 | 1024.5 |
| 20260902154520 | 68 | 93 | 3.0 | 7.0 | 0.00 | 0.03 | 0.01 | 81 | 1024.5 |
| 20260902154031 | 67 | 308 | 1.0 | 7.0 | 0.00 | 0.03 | 0.01 | 80 | 1024.5 |
| 20260902153513 | 67 | 64 | 3.0 | 8.0 | 0.00 | 0.03 | 0.01 | 81 | 1024.5 |
| 20260902153021 | 67 | 87 | 3.0 | 7.0 | 0.00 | 0.03 | 0.01 | 80 | 1024.5 |
| 20260902152519 | 66 | 67 | 4.0 | 6.0 | 0.00 | 0.03 | 0.01 | 79 | 1024.5 |
| 20260902152012 | 67 | 94 | 3.0 | 8.0 | 0.00 | 0.03 | 0.01 | 78 | 1024.5 |
| 20260902151521 | 66 | 146 | 4.0 | 8.0 | 0.00 | 0.03 | 0.01 | 79 | 1024.5 |
| 20260902151020 | 66 | 72 | 3.0 | 7.0 | 0.00 | 0.03 | 0.01 | 81 | 1024.5 |
| 20260902150512 | 66 | 56 | 3.0 | 7.0 | 0.00 | 0.03 | 0.01 | 80 | 1024.6 |
| 20260902150020 | 66 | 36 | 3.0 | 7.0 | 0.00 | 0.03 | 0.01 | 80 | 1024.5 |
| 20260902145519 | 66 | 120 | 2.0 | 6.0 | 0.00 | 0.03 | 0.01 | 81 | 1024.6 |
| 20260902145013 | 66 | 151 | 2.0 | 6.0 | 0.00 | 0.03 | 0.01 | 82 | 1024.5 |
| 20260902144531 | 66 | 103 | 2.0 | 7.0 | 0.00 | 0.03 | 0.01 | 82 | 1024.5 |
| 20260902144019 | 66 | 116 | 4.0 | 9.0 | 0.00 | 0.03 | 0.01 | 81 | 1024.5 |
| 20260902143513 | 65 | 79 | 5.0 | 9.0 | 0.00 | 0.03 | 0.01 | 82 | 1024.6 |
| 20260902143020 | 65 | 89 | 3.0 | 10.0 | 0.00 | 0.03 | 0.01 | 82 | 1024.5 |
| 20260902142519 | 65 | 95 | 3.0 | 10.0 | 0.00 | 0.03 | 0.01 | 83 | 1024.4 |
| 20260902142023 | 65 | 133 | 4.0 | 10.0 | 0.00 | 0.03 | 0.01 | 83 | 1024.4 |
| 20260902141520 | 65 | 116 | 3.0 | 11.0 | 0.00 | 0.03 | 0.01 | 83 | 1024.5 |
| 20260902141019 | 65 | 152 | 4.0 | 11.0 | 0.00 | 0.03 | 0.01 | 83 | 1024.5 |
| 20260902140524 | 65 | 54 | 4.0 | 10.0 | 0.00 | 0.03 | 0.01 | 83 | 1024.5 |
| 20260902140021 | 65 | 118 | 4.0 | 10.0 | 0.00 | 0.03 | 0.01 | 83 | 1024.5 |
| 20260902135519 | 64 | 102 | 3.0 | 9.0 | 0.00 | 0.03 | 0.01 | 84 | 1024.5 |
| 20260902135015 | 64 | 127 | 3.0 | 7.0 | 0.00 | 0.03 | 0.01 | 84 | 1024.4 |
| 20260902134520 | 64 | 144 | 4.0 | 8.0 | 0.00 | 0.03 | 0.01 | 83 | 1024.5 |
| 20260902134020 | 65 | 77 | 4.0 | 8.0 | 0.00 | 0.03 | 0.01 | 84 | 1024.4 |
| 20260902133524 | 64 | 87 | 2.0 | 8.0 | 0.00 | 0.03 | 0.01 | 84 | 1024.3 |
| 20260902133020 | 64 | 32 | 3.0 | 8.0 | 0.00 | 0.03 | 0.01 | 84 | 1024.3 |
| 20260902132524 | 64 | 146 | 3.0 | 7.0 | 0.00 | 0.03 | 0.01 | 84 | 1024.3 |
| 20260902132013 | 64 | 88 | 2.0 | 9.0 | 0.00 | 0.03 | 0.01 | 84 | 1024.3 |
| 20260902131521 | 64 | 141 | 4.0 | 9.0 | 0.00 | 0.03 | 0.01 | 84 | 1024.4 |
| 20260902131020 | 64 | 89 | 4.0 | 8.0 | 0.00 | 0.03 | 0.01 | 83 | 1024.4 |
| 20260902130512 | 64 | 134 | 4.0 | 8.0 | 0.00 | 0.03 | 0.01 | 83 | 1024.3 |
| 20260902130032 | 64 | 57 | 3.0 | 7.0 | 0.00 | 0.03 | 0.01 | 83 | 1024.3 |
| 20260902125531 | 64 | 61 | 2.0 | 7.0 | 0.00 | 0.03 | 0.01 | 84 | 1024.2 |
| 20260902125013 | 64 | 120 | 3.0 | 8.0 | 0.00 | 0.03 | 0.01 | 84 | 1024.1 |
| 20260902124520 | 64 | 56 | 3.0 | 9.0 | 0.00 | 0.03 | 0.01 | 84 | 1024.2 |
| 20260902124019 | 64 | 76 | 5.0 | 9.0 | 0.00 | 0.03 | 0.01 | 83 | 1024.1 |
| 20260902123512 | 64 | 131 | 2.0 | 8.0 | 0.01 | 0.03 | 0.01 | 84 | 1024.1 |
| 20260902123020 | 64 | 113 | 2.0 | 8.0 | 0.01 | 0.03 | 0.01 | 84 | 1024.1 |
| 20260902122519 | 64 | 285 | 3.0 | 10.0 | 0.01 | 0.03 | 0.01 | 83 | 1024.0 |
| 20260902122013 | 64 | 24 | 3.0 | 10.0 | 0.01 | 0.03 | 0.01 | 84 | 1024.2 |
| 20260902121521 | 63 | 100 | 2.0 | 7.0 | 0.01 | 0.03 | 0.01 | 84 | 1024.1 |
| 20260902121030 | 63 | 104 | 2.0 | 6.0 | 0.01 | 0.03 | 0.01 | 85 | 1024.1 |
| 20260902120513 | 63 | 91 | 2.0 | 7.0 | 0.01 | 0.03 | 0.01 | 86 | 1024.0 |
| 20260902120021 | 63 | 63 | 2.0 | 7.0 | 0.01 | 0.03 | 0.01 | 86 | 1023.9 |
| 20260902115520 | 62 | 11 | 2.0 | 7.0 | 0.01 | 0.03 | 0.01 | 86 | 1024.0 |
| 20260902115013 | 62 | 32 | 3.0 | 6.0 | 0.01 | 0.03 | 0.01 | 86 | 1023.9 |
| 20260902114521 | 62 | 103 | 2.0 | 7.0 | 0.01 | 0.03 | 0.01 | 87 | 1024.0 |
| 20260902114020 | 62 | 113 | 3.0 | 7.0 | 0.00 | 0.02 | 0.00 | 87 | 1023.9 |
| 20260902113513 | 62 | 82 | 3.0 | 7.0 | 0.00 | 0.02 | 0.00 | 86 | 1023.9 |
| 20260902113020 | 62 | 66 | 2.0 | 6.0 | 0.00 | 0.02 | 0.00 | 87 | 1023.9 |
| 20260902112530 | 62 | 52 | 1.0 | 5.0 | 0.00 | 0.02 | 0.00 | 87 | 1024.0 |
| 20260902112014 | 62 | 99 | 0.0 | 4.0 | 0.00 | 0.02 | 0.00 | 88 | 1024.0 |
| 20260902111521 | 61 | 65 | 1.0 | 4.0 | 0.00 | 0.02 | 0.00 | 88 | 1024.0 |
| 20260902111019 | 61 | 70 | 1.0 | 4.0 | 0.00 | 0.02 | 0.00 | 89 | 1023.9 |
| 20260902110513 | 61 | 41 | 1.0 | 4.0 | 0.00 | 0.02 | 0.00 | 89 | 1023.9 |
| 20260902110021 | 60 | 86 | 1.0 | 4.0 | 0.00 | 0.02 | 0.00 | 89 | 1023.9 |
| 20260902105531 | 60 | 44 | 1.0 | 4.0 | 0.00 | 0.02 | 0.00 | 90 | 1023.9 |
| 20260902105013 | 59 | 72 | 1.0 | 5.0 | 0.00 | 0.02 | 0.00 | 90 | 1023.8 |
| 20260902104521 | 59 | 29 | 2.0 | 5.0 | 0.00 | 0.02 | 0.00 | 90 | 1023.8 |
| 20260902104031 | 59 | 334 | 2.0 | 3.0 | 0.00 | 0.02 | 0.00 | 91 | 1023.8 |
| 20260902103525 | 59 | 56 | 1.0 | 2.0 | 0.00 | 0.02 | 0.00 | 91 | 1023.9 |
| 20260902103020 | 58 | 16 | 0.0 | 2.0 | 0.00 | 0.02 | 0.00 | 91 | 1023.8 |
| 20260902102531 | 58 | 78 | 0.0 | 2.0 | 0.00 | 0.02 | 0.00 | 92 | 1023.7 |
| 20260902102024 | 58 | 339 | 1.0 | 2.0 | 0.00 | 0.02 | 0.00 | 92 | 1023.7 |
| 20260902101521 | 57 | 42 | 1.0 | 2.0 | 0.00 | 0.02 | 0.00 | 92 | 1023.7 |
| 20260902101019 | 57 | 39 | 0.0 | 1.0 | 0.00 | 0.02 | 0.00 | 92 | 1023.6 |
| 20260902100513 | 57 | 340 | 0.0 | 2.0 | 0.00 | 0.02 | 0.00 | 92 | 1023.5 |
| 20260902100021 | 57 | 339 | 1.0 | 3.0 | 0.00 | 0.02 | 0.00 | 92 | 1023.5 |
| 20260902095519 | 57 | 20 | 1.0 | 3.0 | 0.00 | 0.02 | 0.00 | 92 | 1023.5 |
| 20260902095014 | 57 | 90 | 0.0 | 2.0 | 0.00 | 0.02 | 0.00 | 92 | 1023.4 |
| 20260902094532 | 57 | 61 | 0.0 | 4.0 | 0.00 | 0.02 | 0.00 | 92 | 1023.2 |
| 20260902094031 | 57 | 49 | 1.0 | 4.0 | 0.00 | 0.02 | 0.00 | 92 | 1023.2 |
| 20260902093524 | 57 | 35 | 1.0 | 3.0 | 0.00 | 0.02 | 0.00 | 92 | 1023.2 |
| 20260902093021 | 57 | 2 | 1.0 | 3.0 | 0.00 | 0.02 | 0.00 | 92 | 1023.3 |
| 20260902092519 | 57 | 346 | 1.0 | 4.0 | 0.00 | 0.02 | 0.00 | 92 | 1023.2 |
| 20260902092014 | 57 | 55 | 1.0 | 5.0 | 0.00 | 0.02 | 0.00 | 92 | 1023.2 |
| 20260902091532 | 57 | 314 | 1.0 | 5.0 | 0.00 | 0.02 | 0.00 | 92 | 1023.2 |
| 20260902091020 | 57 | 311 | 1.0 | 5.0 | 0.00 | 0.02 | 0.00 | 92 | 1023.1 |
| 20260902090515 | 57 | 340 | 2.0 | 6.0 | 0.00 | 0.02 | 0.00 | 92 | 1023.1 |
| 20260902090021 | 57 | 304 | 1.0 | 7.0 | 0.00 | 0.02 | 0.00 | 92 | 1023.0 |
| 20260902085522 | 57 | 30 | 3.0 | 7.0 | 0.00 | 0.02 | 0.00 | 92 | 1023.0 |
| 20260902085024 | 57 | 44 | 1.0 | 4.0 | 0.00 | 0.02 | 0.00 | 92 | 1023.0 |
| 20260902084520 | 57 | 333 | 2.0 | 4.0 | 0.00 | 0.02 | 0.00 | 92 | 1023.1 |
| 20260902084024 | 57 | 333 | 1.0 | 4.0 | 0.00 | 0.02 | 0.00 | 91 | 1023.0 |
| 20260902083513 | 57 | 300 | 1.0 | 4.0 | 0.00 | 0.02 | 0.00 | 91 | 1023.0 |
| 20260902083021 | 57 | 80 | 2.0 | 4.0 | 0.00 | 0.02 | 0.00 | 91 | 1022.9 |
| 20260902082531 | 57 | 302 | 0.0 | 4.0 | 0.00 | 0.02 | 0.00 | 91 | 1022.9 |
| 20260902082014 | 58 | 51 | 1.0 | 4.0 | 0.00 | 0.02 | 0.00 | 91 | 1022.9 |
| 20260902081521 | 58 | 34 | 1.0 | 4.0 | 0.00 | 0.02 | 0.00 | 90 | 1022.8 |
| 20260902081020 | 58 | 36 | 2.0 | 3.0 | 0.00 | 0.02 | 0.00 | 90 | 1022.9 |
| 20260902080513 | 58 | 5 | 1.0 | 5.0 | 0.00 | 0.02 | 0.00 | 90 | 1022.7 |
| 20260902080020 | 58 | 31 | 2.0 | 5.0 | 0.00 | 0.02 | 0.00 | 90 | 1022.8 |
| 20260902075520 | 58 | 302 | 1.0 | 4.0 | 0.00 | 0.02 | 0.00 | 91 | 1022.7 |
| 20260902075013 | 58 | 74 | 1.0 | 3.0 | 0.00 | 0.02 | 0.00 | 91 | 1022.7 |
| 20260902074521 | 58 | 58 | 1.0 | 2.0 | 0.00 | 0.02 | 0.00 | 90 | 1022.8 |
| 20260902074031 | 58 | 321 | 0.0 | 3.0 | 0.00 | 0.02 | 0.00 | 90 | 1022.7 |
| 20260902073513 | 58 | 332 | 1.0 | 4.0 | 0.00 | 0.02 | 0.00 | 91 | 1022.7 |
| 20260902073032 | 58 | 297 | 1.0 | 4.0 | 0.00 | 0.02 | 0.00 | 91 | 1022.6 |
| 20260902072520 | 58 | 336 | 1.0 | 2.0 | 0.00 | 0.02 | 0.00 | 91 | 1022.6 |
| 20260902072013 | 57 | 15 | 0.0 | 2.0 | 0.00 | 0.02 | 0.00 | 91 | 1022.6 |
| 20260902071521 | 57 | 23 | 1.0 | 2.0 | 0.00 | 0.02 | 0.00 | 91 | 1022.6 |
| 20260902071020 | 57 | 9 | 0.0 | 2.0 | 0.00 | 0.02 | 0.00 | 91 | 1022.5 |
| 20260902070513 | 57 | 40 | 1.0 | 3.0 | 0.00 | 0.02 | 0.00 | 91 | 1022.5 |
| 20260902070033 | 57 | 22 | 1.0 | 3.0 | 0.00 | 0.02 | 0.00 | 91 | 1022.4 |
| 20260902065520 | 57 | 53 | 1.0 | 3.0 | 0.00 | 0.02 | 0.00 | 91 | 1022.4 |
| 20260902065013 | 57 | 13 | 1.0 | 3.0 | 0.00 | 0.02 | 0.00 | 91 | 1022.3 |
| 20260902064521 | 57 | 60 | 0.0 | 3.0 | 0.00 | 0.02 | 0.00 | 91 | 1022.3 |
| 20260902064020 | 57 | 28 | 1.0 | 3.0 | 0.00 | 0.02 | 0.00 | 91 | 1022.2 |
| 20260902063513 | 57 | 4 | 1.0 | 4.0 | 0.00 | 0.02 | 0.00 | 91 | 1022.2 |
| 20260902063020 | 57 | 14 | 2.0 | 4.0 | 0.00 | 0.02 | 0.00 | 91 | 1022.2 |
| 20260902062531 | 57 | 31 | 2.0 | 4.0 | 0.00 | 0.02 | 0.00 | 92 | 1022.1 |
| 20260902062013 | 57 | 337 | 1.0 | 3.0 | 0.00 | 0.02 | 0.00 | 91 | 1022.2 |
| 20260902061521 | 57 | 25 | 2.0 | 3.0 | 0.00 | 0.02 | 0.00 | 91 | 1022.1 |
| 20260902061023 | 57 | 354 | 1.0 | 3.0 | 0.00 | 0.02 | 0.00 | 91 | 1022.1 |
| 20260902060513 | 57 | 341 | 1.0 | 4.0 | 0.00 | 0.02 | 0.00 | 91 | 1022.1 |
| 20260902060020 | 57 | 13 | 1.0 | 4.0 | 0.00 | 0.02 | 0.00 | 91 | 1022.1 |
| 20260902055530 | 57 | 317 | 2.0 | 4.0 | 0.00 | 0.02 | 0.00 | 92 | 1022.0 |
| 20260902055013 | 57 | 13 | 1.0 | 3.0 | 0.00 | 0.02 | 0.00 | 92 | 1022.1 |
| 20260902054521 | 57 | 334 | 1.0 | 3.0 | 0.00 | 0.02 | 0.00 | 92 | 1022.0 |
| 20260902054032 | 57 | 354 | 1.0 | 5.0 | 0.00 | 0.02 | 0.00 | 92 | 1021.9 |
| 20260902053524 | 57 | 75 | 2.0 | 5.0 | 0.00 | 0.02 | 0.00 | 92 | 1021.9 |
| 20260902053022 | 57 | 57 | 2.0 | 5.0 | 0.00 | 0.02 | 0.00 | 92 | 1021.9 |
| 20260902052520 | 57 | 8 | 1.0 | 4.0 | 0.00 | 0.02 | 0.00 | 92 | 1021.8 |
| 20260902052013 | 57 | 41 | 2.0 | 4.0 | 0.00 | 0.02 | 0.00 | 92 | 1021.9 |
| 20260902051521 | 57 | 9 | 2.0 | 4.0 | 0.00 | 0.02 | 0.00 | 93 | 1021.8 |
| 20260902051021 | 57 | 356 | 1.0 | 2.0 | 0.00 | 0.02 | 0.00 | 93 | 1022.0 |
| 20260902050526 | 57 | 342 | 0.0 | 3.0 | 0.00 | 0.02 | 0.00 | 93 | 1022.0 |
| 20260902050033 | 57 | 333 | 1.0 | 3.0 | 0.00 | 0.02 | 0.00 | 93 | 1022.1 |
| 20260902045519 | 57 | 40 | 0.0 | 3.0 | 0.00 | 0.02 | 0.00 | 93 | 1022.0 |
| 20260902045014 | 57 | 4 | 1.0 | 4.0 | 0.00 | 0.02 | 0.00 | 93 | 1022.0 |
| 20260902044521 | 57 | 353 | 2.0 | 4.0 | 0.00 | 0.02 | 0.00 | 93 | 1022.0 |
| 20260902044020 | 57 | 21 | 2.0 | 3.0 | 0.00 | 0.02 | 0.00 | 93 | 1021.9 |
| 20260902043514 | 57 | 356 | 0.0 | 3.0 | 0.00 | 0.02 | 0.00 | 93 | 1022.0 |
| 20260902043021 | 57 | 22 | 0.0 | 3.0 | 0.00 | 0.02 | 0.00 | 93 | 1021.9 |
| 20260902042520 | 57 | 37 | 1.0 | 4.0 | 0.00 | 0.02 | 0.00 | 93 | 1021.9 |
| 20260902042015 | 57 | 37 | 1.0 | 2.0 | 0.00 | 0.02 | 0.00 | 93 | 1021.9 |
| 20260902041532 | 57 | 18 | 1.0 | 2.0 | 0.00 | 0.02 | 0.00 | 93 | 1021.8 |
| 20260902041019 | 57 | 29 | 0.0 | 2.0 | 0.00 | 0.02 | 0.00 | 93 | 1021.9 |
| 20260902040514 | 57 | 29 | 1.0 | 2.0 | 0.00 | 0.02 | 0.00 | 93 | 1021.8 |
| 20260902040022 | 58 | 53 | 0.0 | 1.0 | 0.00 | 0.02 | 0.00 | 93 | 1021.8 |
| 20260902035531 | 58 | 75 | 1.0 | 2.0 | 0.00 | 0.02 | 0.00 | 93 | 1021.8 |
| 20260902035013 | 58 | 80 | 1.0 | 3.0 | 0.00 | 0.02 | 0.00 | 93 | 1021.7 |
| 20260902034521 | 58 | 29 | 1.0 | 3.0 | 0.00 | 0.02 | 0.00 | 93 | 1021.7 |
| 20260902034018 | 58 | 37 | 1.0 | 3.0 | 0.00 | 0.02 | 0.00 | 93 | 1021.7 |
| 20260902033515 | 58 | 338 | 0.0 | 2.0 | 0.00 | 0.02 | 0.00 | 93 | 1021.7 |
| 20260902033021 | 58 | 17 | 1.0 | 2.0 | 0.00 | 0.02 | 0.00 | 93 | 1021.6 |
| 20260902032520 | 58 | 307 | 0.0 | 1.0 | 0.00 | 0.02 | 0.00 | 93 | 1021.7 |
| 20260902032025 | 58 | 32 | 0.0 | 1.0 | 0.00 | 0.02 | 0.00 | 92 | 1021.7 |
| 20260902031522 | 58 | 52 | 0.0 | 1.0 | 0.00 | 0.02 | 0.00 | 92 | 1021.7 |
| 20260902031018 | 58 | 3 | 0.0 | 1.0 | 0.00 | 0.02 | 0.00 | 92 | 1021.8 |
| 20260902030514 | 58 | 3 | 0.0 | 1.0 | 0.00 | 0.02 | 0.00 | 92 | 1021.7 |
| 20260902030021 | 58 | 3 | 0.0 | 0.0 | 0.00 | 0.02 | 0.00 | 92 | 1021.6 |
| 20260902025520 | 58 | 3 | 0.0 | 1.0 | 0.00 | 0.02 | 0.02 | 92 | 1021.6 |
| 20260902025015 | 59 | 3 | 0.0 | 2.0 | 0.00 | 0.02 | 0.02 | 92 | 1021.5 |
| 20260902024532 | 59 | 343 | 1.0 | 3.0 | 0.00 | 0.02 | 0.02 | 92 | 1021.6 |
| 20260902024020 | 59 | 55 | 1.0 | 3.0 | 0.00 | 0.02 | 0.02 | 92 | 1021.5 |
| 20260902023514 | 59 | 25 | 1.0 | 3.0 | 0.00 | 0.02 | 0.02 | 92 | 1021.5 |
| 20260902023022 | 59 | 350 | 1.0 | 3.0 | 0.00 | 0.02 | 0.02 | 92 | 1021.6 |
| 20260902022518 | 59 | 346 | 1.0 | 3.0 | 0.00 | 0.02 | 0.02 | 92 | 1021.5 |
| 20260902022025 | 60 | 7 | 1.0 | 3.0 | 0.00 | 0.02 | 0.02 | 92 | 1021.7 |
| 20260902021522 | 60 | 33 | 2.0 | 3.0 | 0.00 | 0.02 | 0.02 | 92 | 1021.5 |
| 20260902021018 | 60 | 81 | 1.0 | 3.0 | 0.00 | 0.02 | 0.02 | 91 | 1021.5 |
| 20260902020514 | 60 | 33 | 1.0 | 3.0 | 0.00 | 0.02 | 0.02 | 92 | 1021.6 |
| 20260902020021 | 60 | 100 | 0.0 | 3.0 | 0.00 | 0.02 | 0.02 | 91 | 1021.5 |
| 20260902015520 | 60 | 232 | 0.0 | 4.0 | 0.00 | 0.02 | 0.02 | 91 | 1021.6 |
| 20260902015014 | 61 | 62 | 2.0 | 4.0 | 0.00 | 0.02 | 0.02 | 91 | 1021.6 |
| 20260902014521 | 61 | 112 | 1.0 | 3.0 | 0.00 | 0.02 | 0.02 | 91 | 1021.5 |
| 20260902014018 | 61 | 104 | 1.0 | 3.0 | 0.00 | 0.02 | 0.02 | 91 | 1021.5 |
| 20260902013514 | 61 | 108 | 1.0 | 3.0 | 0.00 | 0.02 | 0.02 | 91 | 1021.5 |
| 20260902013033 | 61 | 82 | 1.0 | 4.0 | 0.00 | 0.02 | 0.02 | 91 | 1021.5 |
| 20260902012531 | 61 | 58 | 1.0 | 4.0 | 0.00 | 0.02 | 0.02 | 91 | 1021.4 |
| 20260902012014 | 61 | 96 | 2.0 | 4.0 | 0.00 | 0.02 | 0.02 | 91 | 1021.3 |
| 20260902011522 | 61 | 88 | 1.0 | 4.0 | 0.00 | 0.02 | 0.02 | 91 | 1021.4 |
| 20260902011018 | 61 | 94 | 1.0 | 5.0 | 0.00 | 0.02 | 0.02 | 91 | 1021.3 |
| 20260902010514 | 61 | 76 | 1.0 | 3.0 | 0.00 | 0.02 | 0.02 | 91 | 1021.4 |
| 20260902010023 | 61 | 103 | 1.0 | 3.0 | 0.00 | 0.02 | 0.02 | 91 | 1021.3 |
| 20260902005523 | 61 | 60 | 1.0 | 5.0 | 0.00 | 0.02 | 0.02 | 91 | 1021.3 |
| 20260902005014 | 61 | 74 | 2.0 | 5.0 | 0.00 | 0.02 | 0.02 | 91 | 1021.3 |
| 20260902004522 | 61 | 70 | 1.0 | 7.0 | 0.00 | 0.02 | 0.02 | 91 | 1021.2 |
| 20260902004018 | 61 | 65 | 2.0 | 7.0 | 0.00 | 0.02 | 0.02 | 91 | 1021.2 |
| 20260902003525 | 61 | 89 | 2.0 | 4.0 | 0.00 | 0.02 | 0.02 | 91 | 1021.2 |
| 20260902003022 | 61 | 68 | 2.0 | 4.0 | 0.00 | 0.02 | 0.02 | 91 | 1021.1 |
| 20260902002519 | 61 | 69 | 1.0 | 3.0 | 0.00 | 0.02 | 0.02 | 91 | 1021.2 |
| 20260902002014 | 61 | 55 | 1.0 | 3.0 | 0.00 | 0.02 | 0.02 | 91 | 1021.1 |
| 20260902001533 | 61 | 60 | 1.0 | 2.0 | 0.00 | 0.02 | 0.02 | 91 | 1021.1 |
| 20260902001018 | 61 | 60 | 1.0 | 2.0 | 0.00 | 0.02 | 0.02 | 91 | 1021.0 |
| 20260902000514 | 61 | 11 | 1.0 | 2.0 | 0.00 | 0.02 | 0.02 | 90 | 1020.9 |
| 20260902000021 | 61 | 46 | 0.0 | 2.0 | 0.00 | 0.02 | 0.02 | 90 | 1020.9 |
| 20260901235518 | 61 | 46 | 1.0 | 2.0 | 0.00 | 0.02 | 0.02 | 90 | 1020.8 |
| 20260901235025 | 62 | 46 | 0.0 | 1.0 | 0.00 | 0.02 | 0.02 | 90 | 1020.6 |
| 20260901234521 | 62 | 49 | 0.0 | 1.0 | 0.00 | 0.02 | 0.02 | 90 | 1020.7 |
| 20260901234019 | 62 | 49 | 0.0 | 2.0 | 0.00 | 0.02 | 0.02 | 90 | 1020.6 |
| 20260901233514 | 62 | 49 | 1.0 | 2.0 | 0.00 | 0.02 | 0.02 | 90 | 1020.6 |
| 20260901233032 | 62 | 18 | 0.0 | 1.0 | 0.00 | 0.02 | 0.02 | 90 | 1020.6 |
| 20260901232518 | 62 | 18 | 0.0 | 1.0 | 0.00 | 0.02 | 0.02 | 90 | 1020.5 |
| 20260901232014 | 62 | 16 | 0.0 | 2.0 | 0.00 | 0.02 | 0.02 | 90 | 1020.6 |
| 20260901231522 | 62 | 16 | 1.0 | 2.0 | 0.00 | 0.02 | 0.02 | 90 | 1020.6 |
| 20260901231020 | 62 | 42 | 1.0 | 3.0 | 0.00 | 0.02 | 0.02 | 90 | 1020.5 |
| 20260901230515 | 62 | 42 | 0.0 | 3.0 | 0.00 | 0.02 | 0.02 | 90 | 1020.5 |
| 20260901230021 | 62 | 33 | 1.0 | 2.0 | 0.00 | 0.02 | 0.02 | 90 | 1020.4 |
| 20260901225519 | 62 | 153 | 0.0 | 0.0 | 0.00 | 0.02 | 0.02 | 90 | 1020.3 |
| 20260901225014 | 62 | 153 | 0.0 | 0.0 | 0.00 | 0.02 | 0.02 | 89 | 1020.3 |
| 20260901224522 | 63 | 153 | 0.0 | 1.0 | 0.00 | 0.02 | 0.02 | 89 | 1020.3 |
| 20260901224030 | 63 | 153 | 0.0 | 1.0 | 0.00 | 0.02 | 0.02 | 89 | 1020.2 |
| 20260901223514 | 62 | 153 | 0.0 | 1.0 | 0.00 | 0.02 | 0.02 | 89 | 1020.3 |
| 20260901223026 | 63 | 154 | 0.0 | 2.0 | 0.01 | 0.02 | 0.02 | 89 | 1020.2 |
| 20260901222529 | 63 | 155 | 1.0 | 2.0 | 0.01 | 0.02 | 0.02 | 89 | 1020.1 |
| 20260901222014 | 63 | 142 | 1.0 | 1.0 | 0.01 | 0.02 | 0.02 | 89 | 1020.2 |
| 20260901221522 | 63 | 119 | 0.0 | 2.0 | 0.02 | 0.02 | 0.02 | 89 | 1020.2 |
| 20260901221018 | 63 | 174 | 0.0 | 3.0 | 0.02 | 0.02 | 0.02 | 88 | 1020.2 |
| 20260901220514 | 63 | 165 | 2.0 | 3.0 | 0.02 | 0.02 | 0.02 | 88 | 1020.1 |
| 20260901220022 | 64 | 91 | 0.0 | 1.0 | 0.02 | 0.02 | 0.02 | 88 | 1020.2 |
| 20260901215519 | 64 | 309 | 0.0 | 1.0 | 0.02 | 0.02 | 0.02 | 88 | 1020.1 |
| 20260901215015 | 64 | 309 | 0.0 | 2.0 | 0.02 | 0.02 | 0.02 | 88 | 1020.1 |
| 20260901214523 | 64 | 305 | 1.0 | 4.0 | 0.02 | 0.02 | 0.02 | 88 | 1019.9 |
| 20260901214019 | 64 | 282 | 1.0 | 4.0 | 0.02 | 0.02 | 0.02 | 87 | 1020.0 |
| 20260901213526 | 65 | 320 | 0.0 | 2.0 | 0.02 | 0.02 | 0.02 | 88 | 1019.9 |
| 20260901213021 | 65 | 334 | 1.0 | 3.0 | 0.01 | 0.01 | 0.01 | 87 | 1019.9 |
| 20260901212531 | 65 | 334 | 2.0 | 3.0 | 0.01 | 0.01 | 0.01 | 86 | 1019.9 |
| 20260901212026 | 66 | 307 | 0.0 | 1.0 | 0.01 | 0.01 | 0.01 | 85 | 1019.7 |
| 20260901211523 | 66 | 290 | 0.0 | 1.0 | 0.00 | 0.00 | 0.00 | 84 | 1019.6 |
| 20260901211018 | 66 | 232 | 0.0 | 2.0 | 0.00 | 0.00 | 0.00 | 83 | 1019.6 |
| 20260901210514 | 67 | 295 | 0.0 | 2.0 | 0.00 | 0.00 | 0.00 | 82 | 1019.4 |